Regional Weather Roundup
Issued by NWS

Home | Current Version | Previous Version | Text Only | Print | Product List | Glossary On
Versions: 1 2 3 4 5 6 7 8 9 10 11 12 13 14 15 16 17 18 19 20 21 22 23 24 25 26 27 28 29 30 31 32 33 34 35 36 37 38 39 40 41 42 43 44 45 46 47 48 49 50
890
ASUS43 KFSD 221502
RWRSD

WEATHER ROUNDUP FOR SOUTH DAKOTA
NATIONAL WEATHER SERVICE SIOUX FALLS SD
900 AM CST MON JAN 22 2018

NOTE: "FAIR" INDICATES FEW OR NO CLOUDS BELOW 12,000 FEET WITH NO
SIGNIFICANT WEATHER AND/OR OBSTRUCTIONS TO VISIBILITY.


SDZ001>005-009-010-012>017-221600-
NORTHWEST AND NORTH CENTRAL SOUTH DAKOTA

CITY           SKY/WX    TMP DP  RH WIND       PRES   REMARKS
BUFFALO          N/A     18  12  77 W10       29.90F WCI   6
FAITH            N/A     18  14  84 NW10      29.98R WCI   6
MOBRIDGE       FOG       21  19  92 N6        29.98R VSB 1/4 WCI  13
$$

SDZ012>016-024>037-041>051-057-063-072>074-221600-
SOUTHWEST AND SOUTH CENTRAL SOUTH DAKOTA

CITY           SKY/WX    TMP DP  RH WIND       PRES   REMARKS
RAPID CTY ARPT CLEAR     20  12  71 NW6       29.98R WCI  12
PIERRE         NOT AVBL
CUSTER         PTCLDY    14   5  67 CALM      29.91R
ELLSWORTH AFB  CLEAR     21  13  71 W5        29.97R WCI  15
PHILIP         PTCLDY    19  16  88 NW7       29.99R WCI  10
PINE RIDGE     PTCLDY     9   7  92 CALM      29.99S
SPEARFISH        N/A     23  10  58 W9        29.98S WCI  13
WINNER         LGT SNOW  25  22  88 NW23      29.90F FOG     WCI  10
$$

SDZ004>011-016>023-039-040-221600-
NORTHEAST SOUTH DAKOTA

CITY           SKY/WX    TMP DP  RH WIND       PRES   REMARKS
ABERDEEN       CLOUDY    22  21  96 N21       29.98F WCI   6
WATERTOWN      FOG       23  22  96 N22G32    29.83F VSB 3/4 WCI   8
SISSETON         N/A     25  24  96 N18       29.94F WCI  11
$$

SDZ017-020-022-023-036>040-048>070-221600-
SOUTHEAST SOUTH DAKOTA

CITY           SKY/WX    TMP DP  RH WIND       PRES   REMARKS
SIOUX FALLS    CLOUDY    26  24  92 N28G44    29.71R BLWGSNOWWCI  10
HURON          CLOUDY    22  21  96 N30       29.88F BLWGSNOWWCI   4
CHAMBERLAIN    CLOUDY    25  24  99 NW21G28   29.89S FOG     WCI  10
MITCHELL       CLOUDY    24  22  91 N32G38    29.84S BLWGSNOWWCI   6
YANKTON        HVY SNOW  25  23  92 NW28G40   29.71F VSB 1/4 WCI   9
$$

ABBREVIATIONS USED IN REMARKS
   TC - TEMPERATURE IN CELSIUS
  WCI - WIND CHILL INDEX
   HX - HEAT INDEX
  VSB - VISIBILITY





USA.gov is the U.S. government's official web portal to all federal, state and local government web resources and services.